Regional Weather Roundup
Issued by NWS Cleveland, OH

Home | Current Version | Previous Version | Text Only | Print | Product List | Glossary Off
Versions: 1 2 3 4 5 6 7 8 9 10 11 12 13 14 15 16 17 18 19 20 21 22 23 24 25 26 27 28 29 30 31 32 33 34 35 36 37 38 39 40 41 42 43 44 45 46 47 48 49 50

567
ASUS41 KCLE 292202
RWRCLE
OHIO REGIONAL WEATHER ROUNDUP
NATIONAL WEATHER SERVICE CLEVELAND, OH
600 PM EDT FRI JUL 29 2016

NOTE: "FAIR" INDICATES FEW OR NO CLOUDS BELOW 12,000 FEET WITH NO
SIGNIFICANT WEATHER AND/OR OBSTRUCTIONS TO VISIBILITY.

OHZ001>008-015>018-024>027-034-035-043-044-292300-
   NORTHWEST OHIO

CITY           SKY/WX    TMP DP  RH WIND       PRES   REMARKS
DEFIANCE       MOSUNNY   79  68  69 N9        29.92R
FINDLAY        LGT RAIN  77  67  71 NE9       29.92R
TOLEDO EXPRESS CLOUDY    73  72  96 NE10      29.93R
TOLEDO EXEC    CLOUDY    77  69  76 NE8       29.94R
LIMA           CLOUDY    79  73  82 CALM      29.91S
$$

OHZ009>014-019>023-028>033-038-089-292300-
   NORTHEAST OHIO

CITY           SKY/WX    TMP DP  RH WIND       PRES   REMARKS
CLE-HOPKINS    CLOUDY    80  68  66 NE13      29.95R
CLE-LAKEFRONT  CLOUDY    80  69  69 N15       29.92R
CUY CO. ARPT   PTSUNNY   82  70  65 NE9       29.94S
LORAIN-ELYRIA  CLOUDY    78  67  68 E13       29.94R
ASHTABULA      PTSUNNY   78  70  76 E6        29.96S
AKRON-CANTON   CLOUDY    80  66  62 NE10      29.93R
WOOSTER        CLOUDY    78  65  63 NE6       29.93S
MANSFIELD      CLOUDY    76  68  76 N6        29.95R
YOUNGSTOWN     CLOUDY    71  67  87 NE9       29.95F
$$

OHZ042-051>053-060>062-070>072-077>081-292300-
  SOUTHWEST OHIO

CITY           SKY/WX    TMP DP  RH WIND       PRES   REMARKS
CINC-COVINGTON PTSUNNY   85  71  63 SW6       29.89S HX  90
CINC-LUNKEN    CLOUDY    83  73  72 S10       29.87S
HAMILTON       MOSUNNY   88  71  57 SW8       29.88S HX  94
DAYTON         CLOUDY    78  66  66 E10       29.91S
WRIGHT-PAT AFB LGT RAIN  73  68  85 SE7       29.91R
DAYTON GENERAL LGT RAIN  76  69  79 E12       29.90R
WILMINGTON     PTSUNNY   74  70  87 S3        29.91F
$$

OHZ036-037-039>041-045>050-054>059-063>069-073>076-082>088-292300-
  CENTRAL AND SOUTHEAST OHIO

CITY           SKY/WX    TMP DP  RH WIND       PRES   REMARKS
COLUMBUS       PTSUNNY   81  69  67 S3        29.91R
OSU AIRPORT    MOSUNNY   79  68  69 CALM      29.91S
BOLTON FIELD   NOT AVBL
RICKENBACK AFB SUNNY     80  71  73 CALM      29.90S
NEWARK         MOSUNNY   84  69  60 SW5       29.90S
MARION         CLOUDY    80  64  58 E3        29.93R
LANCASTER      CLOUDY    82  69  64 S3        29.91S
ZANESVILLE     MOSUNNY   86  69  56 S9        29.91R HX  90
NEW PHILLY     PTSUNNY   86  64  47 S3        29.91S
$$




USA.gov is the U.S. government's official web portal to all federal, state and local government web resources and services.